Location: Bothwell
(42.3833°S, 147.0000°E)
Time: 00:23:00
(UTC+10:00)

Max Valier Satellite - Visible Passes

Search period start: 29 September 2023 00:00
Search period end: 09 October 2023 01:00
Orbit: 427 x 439 km, 97.1° (Epoch: 27 September)

Date Brightness Start Highest point End Pass type
(mag) Time Alt. Az. Time Alt. Az. Time Alt. Az.
29 Sep ? 19:48:37 10° SE 19:48:50 11° SE 19:48:50 11° SE visible
29 Sep ? 21:21:38 10° SSW 21:22:08 12° SW 21:22:08 12° SW visible
30 Sep ? 20:40:30 10° S 20:41:43 20° S 20:41:43 20° S visible
01 Oct ? 21:00:18 10° SSE 21:01:13 17° SSE 21:01:13 17° SSE visible
01 Oct ? 22:34:19 10° SW 22:34:31 10° SW 22:34:31 10° SW visible
02 Oct ? 21:52:24 10° S 21:53:58 22° SSW 21:53:58 22° SSW visible
03 Oct ? 21:11:50 10° SSE 21:13:21 24° SSE 21:13:21 24° SSE visible
04 Oct ? 20:32:15 10° SE 20:32:40 12° SE 20:32:40 12° SE visible
04 Oct ? 22:04:09 10° SSW 22:05:57 21° SW 22:05:57 21° SW visible
05 Oct ? 21:23:11 10° SSE 21:25:12 33° SSE 21:25:12 33° SSE visible
06 Oct ? 20:43:06 10° SE 20:44:23 17° ESE 20:44:23 17° ESE visible
06 Oct ? 22:15:44 10° SSW 22:17:40 18° WSW 22:17:40 18° WSW visible
07 Oct ? 21:34:20 10° S 21:36:46 42° SSW 21:36:46 42° SSW visible
08 Oct ? 20:53:51 10° SSE 20:55:50 26° ESE 20:55:50 26° ESE visible
08 Oct ? 22:27:15 10° SW 22:29:02 14° WSW 22:29:06 14° WSW visible
